[[{"header":{"parameterUnit":"m.s-1","parameterCategory":2,"la1":30.2991,"la2":30.254,"lo1":-89.0895,"lo2":-89.0444,"dy":0.0017,"dx":0.0017,"nx":28,"ny":28,"refTime":"2023-10-24T21:00:00:Z","depth":"0","parameterNumber":2,"parameterNumberName":"U-component_of_CURRENTS"},"data":[0,0,0,0,0,0,0,0,0,0,0,0,0,0,0,0,0,0,0,0,0,0,0,0,0,0,0,0,0,0,0,0,0,0,0,0,0,0,0,0,0,0,0,0,0,0,0,0,0,0,0,0,0,0,0,0,0,0,-0.0558,-0.0558,0,-0.0543,-0.0543,-0.0543,-0.0522,-0.0522,-0.0521,-0.0521,-0.0532,-0.0533,-0.0534,0,0,0,0,0,0,0,0,0,0,0,0,0,-0.056,-0.056,-0.0558,-0.0558,-0.0558,-0.0543,-0.0543,-0.0543,-0.0522,-0.0522,-0.0521,-0.0521,-0.0532,-0.0533,-0.0534,0,0,0,0,0,0,0,0,0,0,0,0,0,-0.0554,-0.056,-0.0558,-0.0546,-0.0544,-0.0543,-0.0543,-0.0543,-0.0522,-0.0522,-0.0521,-0.0521,-0.0532,-0.0533,-0.0534,-0.055,0,0,-0.0537,-0.0537,0,0,0,0,0,0,0,0,-0.0554,-0.0553,-0.0548,-0.0546,-0.0545,-0.0534,-0.0548,-0.0547,-0.0522,-0.053,-0.0521,-0.052,-0.0536,-0.0536,-0.0534,-0.0551,-0.0551,-0.0537,-0.0537,-0.0538,-0.0538,0,0,0,0,0,0,0,-0.0554,-0.0554,-0.0552,-0.0547,-0.0546,-0.0538,-0.0537,-0.0548,-0.0537,-0.053,-0.0528,-0.0527,-0.0535,-0.0533,-0.0535,-0.0551,-0.0537,-0.0538,-0.0538,-0.0539,-0.0567,-0.0567,0,0,0,0,0,0,-0.0558,-0.0554,-0.0552,-0.0552,-0.0548,-0.0539,-0.0537,-0.0538,-0.0536,-0.0535,-0.0527,-0.0526,-0.0532,-0.0533,-0.0535,-0.0561,-0.0538,-0.0539,-0.0539,-0.0567,-0.0567,-0.0567,0,0,0,0,0,0,-0.0558,-0.0558,-0.0553,-0.0553,-0.0551,-0.0539,-0.054,-0.0538,-0.0539,-0.0534,-0.0533,-0.0532,-0.0532,-0.0534,-0.0545,-0.0561,-0.0539,-0.054,-0.0567,-0.0567,-0.0567,-0.061,0,0,0,0,0,0,-0.0558,-0.0558,-0.0562,-0.0553,-0.0552,-0.0564,-0.0541,-0.0538,-0.0539,-0.0537,-0.0538,-0.0538,-0.0531,-0.0543,-0.0546,-0.0562,-0.0541,-0.0566,-0.0567,-0.0567,-0.0608,-0.0612,-0.0614,0,0,0,0,0,-0.0558,-0.0571,-0.0562,-0.0562,-0.0557,-0.0565,-0.0564,-0.0553,-0.054,-0.055,-0.0541,-0.0538,-0.0547,-0.0545,-0.0547,-0.0564,-0.0566,-0.0567,-0.0567,-0.0607,-0.0611,-0.0614,0,0,0,0,0,0,-0.0575,-0.0569,-0.056,-0.057,-0.0571,-0.0562,-0.0569,-0.0559,-0.0559,-0.0558,-0.0546,-0.0546,-0.056,-0.0555,-0.0552,-0.0571,-0.0554,-0.0555,-0.0583,-0.0587,-0.059,-0.0602,-0.0541,0,0,0,0,0,-0.0581,-0.0587,-0.0581,-0.0589,-0.0592,-0.0581,-0.0582,-0.0576,-0.0573,-0.0572,-0.057,-0.0564,-0.0564,-0.057,-0.057,-0.0588,-0.0583,-0.0597,-0.06,-0.0603,-0.0612,-0.0604,-0.0607,-0.0569,-0.0569,-0.0569,0,0,-0.0587,-0.0586,-0.0588,-0.0593,-0.0591,-0.0605,-0.0581,-0.0591,-0.0601,-0.0576,-0.0591,-0.0579,-0.057,-0.0583,-0.0589,-0.0583,-0.0614,-0.0603,-0.0606,-0.0614,-0.0605,-0.0608,-0.0612,-0.0569,-0.0569,-0.0569,0,0,-0.0609,-0.0607,-0.0619,-0.0626,-0.063,-0.0627,-0.0633,-0.063,-0.063,-0.0642,-0.062,-0.0618,-0.0623,-0.0617,-0.0614,-0.0636,-0.0629,-0.0633,-0.0665,-0.0657,-0.066,-0.0663,-0.0677,-0.0681,-0.0637,-0.0638,-0.0638,0,-0.0617,-0.063,-0.0625,-0.0643,-0.0651,-0.0641,-0.066,-0.0663,-0.0664,-0.0666,-0.0654,-0.0646,-0.064,-0.0648,-0.0652,-0.0646,-0.0644,-0.0654,-0.0662,-0.0665,-0.0667,-0.068,-0.0684,-0.064,-0.0639,-0.0639,-0.0639,0,-0.0646,-0.0659,-0.0671,-0.0687,-0.0699,-0.0716,-0.072,-0.0732,-0.0726,-0.0721,-0.0726,-0.0708,-0.0701,-0.0698,-0.0685,-0.0696,-0.0692,-0.0666,-0.0656,-0.0674,-0.0687,-0.069,-0.0643,-0.0642,-0.0641,-0.0641,0,0,-0.0654,-0.0684,-0.0688,-0.0701,-0.0723,-0.0735,-0.0763,-0.0778,-0.079,-0.0786,-0.0795,-0.0787,-0.0767,-0.0761,-0.0739,-0.0734,-0.0752,-0.0712,-0.071,-0.0733,-0.0752,-0.0801,-0.0809,-0.0724,-0.0725,-0.0725,-0.0761,0,-0.0676,-0.0712,-0.0724,-0.0761,-0.078,-0.0789,-0.0815,-0.0829,-0.0832,-0.084,-0.0821,-0.0819,-0.0793,-0.0785,-0.0779,-0.0754,-0.076,-0.0747,-0.0726,-0.0726,-0.0772,-0.0814,-0.0844,-0.0882,-0.0763,-0.0764,-0.0764,0,-0.0696,-0.0718,-0.0755,-0.0793,-0.0803,-0.0824,-0.0857,-0.0877,-0.089,-0.0891,-0.0886,-0.0868,-0.0866,-0.0831,-0.0818,-0.0809,-0.0791,-0.0772,-0.0772,-0.0807,-0.0781,-0.0841,-0.0892,-0.0904,-0.0769,-0.0768,-0.0768,0,-0.0694,-0.074,-0.0767,-0.078,-0.0822,-0.0841,-0.0862,-0.0887,-0.0901,-0.0916,-0.0923,-0.0914,-0.0905,-0.0882,-0.0854,-0.0834,-0.0839,-0.0802,-0.0835,-0.0838,-0.0856,-0.0861,-0.0922,-0.0798,-0.0798,-0.0797,-0.0797,0,-0.0708,-0.0731,-0.0766,-0.0781,-0.0814,-0.0843,-0.0873,-0.0896,-0.0919,-0.0935,-0.0939,-0.0945,-0.0913,-0.091,-0.0879,-0.0884,-0.0861,-0.0862,-0.0855,-0.0873,-0.0879,-0.0883,-0.0879,-0.0799,-0.0799,-0.0798,-0.0798,0,-0.0699,-0.0724,-0.0755,-0.0798,-0.0812,-0.0831,-0.0872,-0.0891,-0.0922,-0.0943,-0.0948,-0.0968,-0.0974,-0.0957,-0.0929,-0.0925,-0.0926,-0.0917,-0.0959,-0.0957,-0.1011,-0.1008,-0.1046,-0.1021,-0.0972,-0.0974,-0.0975,0,-0.0699,-0.0712,-0.0754,-0.0768,-0.0786,-0.0817,-0.0838,-0.0879,-0.0897,-0.0952,-0.0958,-0.0988,-0.1,-0.1013,-0.1018,-0.1018,-0.0975,-0.1048,-0.1018,-0.1047,-0.1036,-0.1005,-0.0976,-0.1059,-0.106,-0.1062,-0.1063,0,-0.0693,-0.0702,-0.0725,-0.0751,-0.0773,-0.0797,-0.0829,-0.0846,-0.0896,-0.0929,-0.0973,-0.0995,-0.1042,-0.1083,-0.1111,-0.1094,-0.1067,-0.1081,-0.1086,-0.1109,-0.11,-0.1061,-0.1013,-0.1077,-0.1075,-0.1074,-0.1074,-0.1073,-0.0681,-0.0688,-0.071,-0.0734,-0.0754,-0.0771,-0.0779,-0.0824,-0.086,-0.0923,-0.0968,-0.1044,-0.1137,-0.119,-0.1182,-0.1232,-0.1158,-0.1215,-0.121,-0.1175,-0.1156,-0.1165,-0.1232,-0.1232,-0.1231,-0.1231,-0.123,0,-0.0666,-0.0676,-0.0694,-0.0716,-0.0719,-0.0739,-0.0767,-0.0776,-0.0813,-0.0916,-0.0976,-0.1165,-0.1243,-0.1308,-0.1397,-0.1381,-0.1303,-0.134,-0.129,-0.125,-0.1247,-0.1257,-0.1363,-0.1363,-0.1363,-0.1362,-0.1362,-0.1362,-0.066,-0.0666,-0.0675,-0.0674,-0.0683,-0.0669,-0.0674,-0.0709,-0.0773,-0.0909,-0.106,-0.1193,-0.1303,-0.1532,-0.1556,-0.1494,-0.1414,-0.1397,-0.1338,-0.1341,-0.1328,-0.1315,-0.1324,-0.1442,-0.1442,-0.1318,-0.1317,-0.1317]},{"header":{"parameterUnit":"m.s-1","parameterCategory":2,"la1":30.2991,"la2":30.254,"lo1":-89.0895,"lo2":-89.0444,"dy":0.0017,"dx":0.0017,"nx":28,"ny":28,"refTime":"2023-10-24T21:00:00:Z","depth":"0","parameterNumber":3,"parameterNumberName":"V-component_of_CURRENTS"},"data":[0,0,0,0,0,0,0,0,0,0,0,0,0,0,0,0,0,0,0,0,0,0,0,0,0,0,0,0,0,0,0,0,0,0,0,0,0,0,0,0,0,0,0,0,0,0,0,0,0,0,0,0,0,0,0,0,0,0,-0.0062,-0.0062,0,-0.0064,-0.0064,-0.0064,-0.0074,-0.0075,-0.0075,-0.0075,-0.0036,-0.0035,-0.0034,0,0,0,0,0,0,0,0,0,0,0,0,0,-0.0042,-0.0042,-0.0062,-0.0062,-0.0062,-0.0064,-0.0064,-0.0064,-0.0074,-0.0075,-0.0075,-0.0075,-0.0037,-0.0035,-0.0034,0,0,0,0,0,0,0,0,0,0,0,0,0,-0.0048,-0.0042,-0.0062,-0.0067,-0.0068,-0.0064,-0.0064,-0.0064,-0.0074,-0.0075,-0.0075,-0.0075,-0.0037,-0.0035,-0.0033,-0.0015,0,0,-0.0028,-0.0027,0,0,0,0,0,0,0,0,-0.0048,-0.0049,-0.0066,-0.0067,-0.0067,-0.0069,-0.0043,-0.0046,-0.0074,-0.0072,-0.0075,-0.0075,-0.0043,-0.0041,-0.0041,-0.0013,-0.0011,-0.0028,-0.0026,-0.0026,-0.0025,0,0,0,0,0,0,0,-0.0047,-0.0048,-0.0063,-0.0066,-0.0067,-0.0061,-0.0063,-0.0044,-0.0055,-0.0072,-0.0073,-0.0073,-0.0043,-0.0043,-0.004,-0.0011,-0.0028,-0.0026,-0.0025,-0.0024,0.0045,0.0046,0,0,0,0,0,0,-0.0048,-0.0048,-0.0062,-0.0063,-0.0058,-0.0062,-0.0063,-0.0068,-0.0056,-0.0054,-0.0073,-0.0073,-0.0046,-0.0042,-0.0039,-0.0013,-0.0026,-0.0024,-0.0023,0.0044,0.0045,0.0046,0,0,0,0,0,0,-0.0048,-0.0049,-0.0062,-0.0055,-0.0057,-0.0062,-0.0067,-0.0068,-0.0068,-0.0057,-0.0055,-0.0072,-0.0046,-0.0041,-0.0018,-0.0012,-0.0023,-0.0021,0.0044,0.0045,0.0046,0.0037,0,0,0,0,0,0,-0.0047,-0.0049,-0.0052,-0.0056,-0.0057,-0.006,-0.0067,-0.0068,-0.0068,-0.0069,-0.0055,-0.0052,-0.0046,-0.0021,-0.0016,-0.0009,-0.002,0.0043,0.0044,0.0045,0.0036,0.0037,0.0038,0,0,0,0,0,-0.0046,-0.0052,-0.0052,-0.0053,-0.0061,-0.006,-0.006,-0.0064,-0.0067,-0.0066,-0.0054,-0.0053,-0.0009,-0.0019,-0.0013,-0.0006,0.0042,0.0044,0.0045,0.0035,0.0037,0.0038,0,0,0,0,0,0,-0.0046,-0.0053,-0.0054,-0.0061,-0.0059,-0.0061,-0.0061,-0.0062,-0.0053,-0.0052,-0.0042,-0.0038,-0.0015,-0.0005,-0.0016,0.0019,0.0017,0.0019,0.0007,0.0009,0.001,0.0006,-0.0018,0,0,0,0,0,-0.0046,-0.0051,-0.0053,-0.0057,-0.0056,-0.0057,-0.0056,-0.0058,-0.0052,-0.0049,-0.0039,-0.0023,-0.0003,0.0006,0.0024,0.0044,0.0047,0.0054,0.0055,0.0056,0.0057,0.0064,0.0065,0.0051,0.0051,0.0051,0,0,-0.0048,-0.0051,-0.0055,-0.0057,-0.0056,-0.0057,-0.0058,-0.0057,-0.0055,-0.0044,-0.0034,-0.0016,0.0005,0.0025,0.0036,0.0032,0.0061,0.0058,0.0058,0.0059,0.0065,0.0067,0.0068,0.0052,0.0052,0.0052,0,0,-0.0055,-0.0055,-0.0062,-0.006,-0.0057,-0.0055,-0.0054,-0.0052,-0.0048,-0.0032,-0.0024,-0.0001,0.0024,0.0039,0.0051,0.0072,0.0069,0.0077,0.0076,0.0083,0.0084,0.0085,0.0086,0.0087,0.0075,0.0075,0.0075,0,-0.0058,-0.0069,-0.0062,-0.0066,-0.0067,-0.0054,-0.006,-0.005,-0.004,-0.0034,-0.0029,0.0011,0.0032,0.0055,0.0064,0.0074,0.0072,0.0066,0.0083,0.0084,0.0084,0.0086,0.0087,0.0075,0.0075,0.0075,0.0075,0,-0.0071,-0.0077,-0.0078,-0.008,-0.0076,-0.0077,-0.0064,-0.0055,-0.0045,-0.0035,-0.0008,0.0021,0.0042,0.0055,0.0068,0.0086,0.0081,0.0083,0.0074,0.0085,0.0086,0.0087,0.0074,0.0074,0.0075,0.0075,0,0,-0.0088,-0.009,-0.0091,-0.0097,-0.0085,-0.0087,-0.0073,-0.0062,-0.0059,-0.0031,-0.0023,0.0023,0.0037,0.0053,0.0071,0.0083,0.0094,0.0085,0.0085,0.0077,0.01,0.0163,0.017,0.0091,0.0092,0.0092,0.0096,0,-0.0103,-0.0118,-0.0111,-0.0121,-0.0129,-0.011,-0.0103,-0.0087,-0.0065,-0.005,-0.0009,0.0011,0.0036,0.0046,0.0065,0.0093,0.0097,0.0092,0.0099,0.0099,0.0147,0.0175,0.0215,0.0228,0.0097,0.0097,0.0098,0,-0.012,-0.013,-0.0146,-0.0153,-0.0154,-0.0153,-0.0142,-0.0133,-0.0098,-0.0082,-0.0048,-0.0017,0.0025,0.0035,0.0081,0.0074,0.0085,0.0101,0.0101,0.0165,0.0166,0.0199,0.0235,0.0323,0.0099,0.0099,0.0099,0,-0.0144,-0.0155,-0.0171,-0.0173,-0.0173,-0.0174,-0.0169,-0.0143,-0.014,-0.0098,-0.0085,-0.0037,-0.0001,0.002,0.0085,0.0071,0.0131,0.0111,0.0172,0.0175,0.0216,0.0224,0.0334,0.0123,0.0123,0.0123,0.0123,0,-0.0167,-0.018,-0.0185,-0.0195,-0.0215,-0.0201,-0.0211,-0.0194,-0.0173,-0.0158,-0.0103,-0.0066,-0.0003,0.0051,0.0078,0.0154,0.0126,0.0182,0.0188,0.0216,0.0223,0.0307,0.0336,0.0123,0.0123,0.0123,0.0123,0,-0.019,-0.0193,-0.0216,-0.0224,-0.0228,-0.0241,-0.0246,-0.0253,-0.0219,-0.0195,-0.018,-0.0087,0.0003,0.0066,0.0126,0.0163,0.0267,0.0232,0.0268,0.028,0.0417,0.0443,0.0553,0.0572,0.0287,0.0289,0.029,0,-0.0204,-0.0218,-0.0241,-0.0259,-0.0263,-0.028,-0.0296,-0.0281,-0.028,-0.0195,-0.0182,-0.0075,0.0006,0.0139,0.0241,0.0308,0.0342,0.0371,0.036,0.0451,0.0483,0.0499,0.0506,0.0398,0.04,0.0402,0.0404,0,-0.0231,-0.0238,-0.0257,-0.0296,-0.0319,-0.0348,-0.0356,-0.0359,-0.0319,-0.028,-0.0183,-0.0106,0.0075,0.0225,0.0346,0.0383,0.0455,0.0411,0.0494,0.0584,0.0619,0.0631,0.0362,0.042,0.0418,0.0417,0.0416,0.0415,-0.0249,-0.027,-0.0298,-0.0336,-0.0369,-0.0398,-0.0411,-0.04,-0.0381,-0.0315,-0.0214,-0.0124,0.0157,0.036,0.0446,0.0653,0.0585,0.0669,0.0689,0.0694,0.0739,0.0518,0.0598,0.0597,0.0597,0.0597,0.0596,0,-0.0271,-0.0296,-0.0336,-0.0386,-0.0436,-0.0438,-0.0446,-0.0442,-0.0404,-0.0357,-0.0273,-0.0049,0.0229,0.0474,0.0822,0.0921,0.0907,0.0951,0.0974,0.096,0.0758,0.0793,0.0935,0.0935,0.0935,0.0935,0.0935,0.0935,-0.0284,-0.0325,-0.0349,-0.0435,-0.0471,-0.0514,-0.0511,-0.0477,-0.0447,-0.0356,-0.0286,-0.0236,0.0168,0.0847,0.1182,0.1189,0.1233,0.1241,0.1237,0.1105,0.108,0.1055,0.1097,0.13,0.1301,0.1426,0.1427,0.1428]}],[{"header":{"parameterUnit":"m.s-1","parameterCategory":2,"la1":30.2991,"la2":30.254,"lo1":-89.0895,"lo2":-89.0444,"dy":0.0017,"dx":0.0017,"nx":28,"ny":28,"refTime":"2023-10-24T21:00:00:Z","depth":"2","parameterNumber":2,"parameterNumberName":"U-component_of_CURRENTS"},"data":[0,0,0,0,0,0,0,0,0,0,0,0,0,0,0,0,0,0,0,0,0,0,0,0,0,0,0,0,0,0,0,0,0,0,0,0,0,0,0,0,0,0,0,0,0,0,0,0,0,0,0,0,0,0,0,0,0,0,-0.0455,-0.0455,0,-0.0444,-0.0443,-0.0443,-0.0424,-0.0424,-0.0423,-0.0423,-0.0416,-0.0416,-0.0416,0,0,0,0,0,0,0,0,0,0,0,0,0,-0.0451,-0.0451,-0.0455,-0.0455,-0.0455,-0.0444,-0.0443,-0.0443,-0.0424,-0.0424,-0.0423,-0.0423,-0.0416,-0.0416,-0.0416,0,0,0,0,0,0,0,0,0,0,0,0,0,-0.0447,-0.0451,-0.0455,-0.0445,-0.0443,-0.0444,-0.0443,-0.0443,-0.0424,-0.0424,-0.0423,-0.0423,-0.0416,-0.0416,-0.0416,-0.0427,0,0,-0.0417,-0.0417,0,0,0,0,0,0,0,0,-0.0447,-0.0447,-0.0446,-0.0445,-0.0444,-0.0435,-0.0439,-0.0438,-0.0424,-0.0431,-0.0423,-0.0423,-0.0423,-0.0423,-0.0421,-0.0426,-0.0426,-0.0417,-0.0417,-0.0417,-0.0417,0,0,0,0,0,0,0,-0.0448,-0.0448,-0.045,-0.0446,-0.0445,-0.0437,-0.0436,-0.0439,-0.043,-0.0431,-0.0429,-0.0429,-0.0423,-0.0421,-0.0421,-0.0426,-0.0417,-0.0417,-0.0417,-0.0417,-0.0429,-0.0429,0,0,0,0,0,0,-0.0451,-0.0448,-0.0451,-0.045,-0.0445,-0.0437,-0.0436,-0.0438,-0.043,-0.0428,-0.0429,-0.0428,-0.0421,-0.0421,-0.0421,-0.044,-0.0417,-0.0417,-0.0417,-0.0429,-0.0429,-0.0429,0,0,0,0,0,0,-0.0451,-0.0452,-0.0451,-0.0449,-0.0448,-0.0438,-0.044,-0.0438,-0.044,-0.0429,-0.0427,-0.0433,-0.0421,-0.042,-0.0424,-0.044,-0.0417,-0.0417,-0.0428,-0.0429,-0.0429,-0.0475,0,0,0,0,0,0,-0.0451,-0.0452,-0.0457,-0.0449,-0.0449,-0.0462,-0.0441,-0.0438,-0.044,-0.0438,-0.0432,-0.043,-0.042,-0.0424,-0.0424,-0.0439,-0.0417,-0.0428,-0.0428,-0.0429,-0.0473,-0.0477,-0.048,0,0,0,0,0,-0.0451,-0.0465,-0.0458,-0.0458,-0.0456,-0.0463,-0.0463,-0.0453,-0.0441,-0.0451,-0.0438,-0.0431,-0.0427,-0.0425,-0.0425,-0.044,-0.0428,-0.0428,-0.0429,-0.0472,-0.0476,-0.048,0,0,0,0,0,0,-0.0468,-0.0464,-0.0456,-0.0468,-0.0469,-0.046,-0.0469,-0.0459,-0.0456,-0.0454,-0.0437,-0.0435,-0.0443,-0.0434,-0.0432,-0.0443,-0.0425,-0.0426,-0.0457,-0.0461,-0.0465,-0.0477,-0.0417,0,0,0,0,0,-0.0473,-0.0481,-0.0476,-0.0486,-0.0489,-0.0479,-0.0481,-0.0475,-0.047,-0.0468,-0.0461,-0.0451,-0.0445,-0.0447,-0.0442,-0.0454,-0.0448,-0.0461,-0.0465,-0.0468,-0.0477,-0.0467,-0.0471,-0.0431,-0.0431,-0.0431,0,0,-0.048,-0.0481,-0.0484,-0.049,-0.0489,-0.0501,-0.0479,-0.0489,-0.0497,-0.0469,-0.048,-0.0465,-0.045,-0.0458,-0.0461,-0.0454,-0.0479,-0.0468,-0.0471,-0.0479,-0.0468,-0.0472,-0.0476,-0.0431,-0.0431,-0.0431,0,0,-0.0501,-0.0502,-0.0515,-0.0521,-0.0526,-0.0523,-0.0528,-0.0525,-0.0524,-0.0531,-0.0508,-0.0504,-0.05,-0.0491,-0.0485,-0.0506,-0.0495,-0.0502,-0.0534,-0.0525,-0.0529,-0.0532,-0.0545,-0.0549,-0.0506,-0.0506,-0.0506,0,-0.0509,-0.0523,-0.0521,-0.0537,-0.0545,-0.0535,-0.0552,-0.0554,-0.0552,-0.0554,-0.0542,-0.0527,-0.0517,-0.052,-0.0525,-0.0516,-0.0513,-0.0522,-0.0531,-0.0534,-0.0536,-0.0548,-0.0552,-0.0508,-0.0508,-0.0508,-0.0507,0,-0.0536,-0.055,-0.0563,-0.0577,-0.0588,-0.0604,-0.0606,-0.0616,-0.061,-0.0605,-0.0607,-0.0586,-0.0577,-0.0571,-0.0557,-0.0567,-0.0562,-0.0536,-0.0524,-0.0543,-0.0555,-0.0558,-0.0511,-0.0511,-0.051,-0.0509,0,0,-0.0544,-0.0574,-0.0577,-0.059,-0.061,-0.0621,-0.0645,-0.0658,-0.067,-0.0663,-0.0672,-0.0659,-0.0642,-0.0634,-0.0611,-0.0606,-0.0625,-0.0583,-0.0582,-0.0604,-0.0623,-0.067,-0.0678,-0.0597,-0.0597,-0.0597,-0.0631,0,-0.0563,-0.0597,-0.0609,-0.0643,-0.066,-0.067,-0.0692,-0.0705,-0.0707,-0.0716,-0.0695,-0.0693,-0.0667,-0.0661,-0.0654,-0.0626,-0.0632,-0.0619,-0.0595,-0.0595,-0.064,-0.0682,-0.0651,-0.0682,-0.0633,-0.0634,-0.0634,0,-0.0582,-0.0603,-0.0636,-0.0674,-0.0683,-0.0702,-0.0734,-0.0752,-0.0765,-0.0767,-0.0763,-0.0745,-0.0742,-0.0709,-0.0691,-0.0683,-0.0665,-0.0644,-0.0644,-0.0675,-0.0648,-0.0651,-0.0689,-0.0638,-0.0638,-0.0638,-0.0637,0,-0.0579,-0.0622,-0.0648,-0.066,-0.0701,-0.0719,-0.0739,-0.0763,-0.078,-0.0795,-0.0804,-0.0794,-0.0785,-0.076,-0.0728,-0.0709,-0.0709,-0.0672,-0.0702,-0.0705,-0.0669,-0.0669,-0.0666,-0.0666,-0.0666,-0.0666,-0.0666,0,-0.0591,-0.0613,-0.0648,-0.0661,-0.0695,-0.0723,-0.0755,-0.0777,-0.0803,-0.082,-0.0823,-0.0829,-0.0794,-0.0788,-0.0754,-0.0754,-0.0732,-0.0729,-0.0722,-0.0687,-0.0688,-0.0633,-0.0628,-0.0667,-0.0667,-0.0667,-0.0667,0,-0.0582,-0.0606,-0.0636,-0.0678,-0.0693,-0.0713,-0.0759,-0.078,-0.0812,-0.0834,-0.084,-0.0857,-0.086,-0.084,-0.0807,-0.0796,-0.0782,-0.0783,-0.0764,-0.0755,-0.0779,-0.0776,-0.083,-0.0832,-0.0834,-0.0835,-0.0837,0,-0.0582,-0.0594,-0.0636,-0.0651,-0.0669,-0.0704,-0.0728,-0.0773,-0.0792,-0.0844,-0.0849,-0.0877,-0.0888,-0.0895,-0.0885,-0.0879,-0.0832,-0.0846,-0.0808,-0.0811,-0.0797,-0.0792,-0.0787,-0.0775,-0.0776,-0.0776,-0.0777,0,-0.0575,-0.0585,-0.0606,-0.0635,-0.066,-0.069,-0.0725,-0.0743,-0.0793,-0.0821,-0.0858,-0.0879,-0.092,-0.0922,-0.0943,-0.0912,-0.085,-0.086,-0.0855,-0.0751,-0.0765,-0.075,-0.0746,-0.0781,-0.0781,-0.078,-0.078,-0.078,-0.0563,-0.057,-0.0592,-0.0618,-0.0644,-0.0667,-0.0677,-0.0718,-0.075,-0.0793,-0.0842,-0.089,-0.0914,-0.0954,-0.0914,-0.0891,-0.0925,-0.0877,-0.0872,-0.0867,-0.0867,-0.0885,-0.0925,-0.0925,-0.0926,-0.0926,-0.0926,0,-0.0548,-0.0559,-0.0577,-0.0603,-0.0613,-0.0638,-0.0668,-0.0667,-0.0689,-0.0768,-0.0815,-0.0821,-0.0881,-0.0889,-0.0889,-0.0891,-0.0827,-0.0834,-0.0755,-0.0754,-0.0753,-0.0742,-0.0768,-0.0767,-0.0766,-0.0765,0,0,-0.054,-0.0547,-0.0555,-0.0563,-0.0578,-0.0572,-0.0577,-0.0586,-0.0628,-0.0654,-0.0724,-0.0868,-0.0916,-0.086,-0.0836,-0.0807,-0.0753,-0.0766,-0.0902,-0.0811,-0.0807,-0.0803,-0.079,0,0,0,0,0]},{"header":{"parameterUnit":"m.s-1","parameterCategory":2,"la1":30.2991,"la2":30.254,"lo1":-89.0895,"lo2":-89.0444,"dy":0.0017,"dx":0.0017,"nx":28,"ny":28,"refTime":"2023-10-24T21:00:00:Z","depth":"2","parameterNumber":3,"parameterNumberName":"V-component_of_CURRENTS"},"data":[0,0,0,0,0,0,0,0,0,0,0,0,0,0,0,0,0,0,0,0,0,0,0,0,0,0,0,0,0,0,0,0,0,0,0,0,0,0,0,0,0,0,0,0,0,0,0,0,0,0,0,0,0,0,0,0,0,0,-0.01,-0.01,0,-0.0107,-0.0107,-0.0107,-0.0119,-0.0119,-0.012,-0.012,-0.0084,-0.0083,-0.0081,0,0,0,0,0,0,0,0,0,0,0,0,0,-0.0081,-0.0082,-0.01,-0.01,-0.01,-0.0107,-0.0107,-0.0107,-0.0119,-0.0119,-0.012,-0.012,-0.0084,-0.0083,-0.0081,0,0,0,0,0,0,0,0,0,0,0,0,0,-0.0089,-0.0082,-0.01,-0.0107,-0.0107,-0.0107,-0.0107,-0.0107,-0.0119,-0.0119,-0.012,-0.012,-0.0084,-0.0083,-0.0081,-0.0064,0,0,-0.0076,-0.0075,0,0,0,0,0,0,0,0,-0.0089,-0.009,-0.0106,-0.0106,-0.0107,-0.0112,-0.0087,-0.009,-0.0119,-0.0115,-0.012,-0.012,-0.0089,-0.0087,-0.0088,-0.0062,-0.0061,-0.0076,-0.0075,-0.0074,-0.0073,0,0,0,0,0,0,0,-0.0088,-0.009,-0.0103,-0.0106,-0.0106,-0.0104,-0.0106,-0.0088,-0.0099,-0.0115,-0.0116,-0.0116,-0.0089,-0.009,-0.0087,-0.006,-0.0076,-0.0074,-0.0073,-0.0072,-0.0014,-0.0014,0,0,0,0,0,0,-0.0088,-0.0089,-0.0103,-0.0103,-0.0098,-0.0104,-0.0106,-0.011,-0.01,-0.01,-0.0116,-0.0117,-0.0093,-0.0089,-0.0086,-0.0064,-0.0074,-0.0072,-0.0071,-0.0015,-0.0014,-0.0014,0,0,0,0,0,0,-0.0087,-0.0089,-0.0102,-0.0096,-0.0097,-0.0104,-0.0109,-0.011,-0.0111,-0.0102,-0.01,-0.0116,-0.0093,-0.0088,-0.007,-0.0063,-0.0071,-0.007,-0.0016,-0.0015,-0.0014,-0.0021,0,0,0,0,0,0,-0.0087,-0.0089,-0.009,-0.0096,-0.0098,-0.0101,-0.0109,-0.011,-0.0111,-0.0112,-0.01,-0.0098,-0.0093,-0.0073,-0.0068,-0.0061,-0.0068,-0.0016,-0.0015,-0.0014,-0.0021,-0.002,-0.002,0,0,0,0,0,-0.0086,-0.0091,-0.009,-0.0092,-0.01,-0.0101,-0.0102,-0.0108,-0.011,-0.011,-0.0102,-0.0098,-0.0064,-0.0071,-0.0066,-0.0058,-0.0017,-0.0015,-0.0014,-0.0022,-0.0021,-0.002,0,0,0,0,0,0,-0.0085,-0.0092,-0.0092,-0.0099,-0.0098,-0.0103,-0.0104,-0.0105,-0.0099,-0.0099,-0.0091,-0.0087,-0.0068,-0.0059,-0.0068,-0.0038,-0.0039,-0.0037,-0.0046,-0.0045,-0.0045,-0.0045,-0.0067,0,0,0,0,0,-0.0084,-0.0089,-0.0092,-0.0096,-0.0095,-0.0097,-0.0098,-0.01,-0.0097,-0.0096,-0.0087,-0.0075,-0.0059,-0.0051,-0.0036,-0.0018,-0.0012,-0.0009,-0.0008,-0.0008,-0.0004,0.0007,0.0009,-0.001,-0.001,-0.001,0,0,-0.0086,-0.0089,-0.0093,-0.0095,-0.0095,-0.0098,-0.0099,-0.0099,-0.0099,-0.009,-0.0084,-0.007,-0.0053,-0.0036,-0.0027,-0.0029,0.0001,-0.0006,-0.0006,-0.0003,0.0009,0.001,0.0012,-0.0009,-0.001,-0.001,0,0,-0.0093,-0.0092,-0.0099,-0.0098,-0.0097,-0.0095,-0.0094,-0.0095,-0.0093,-0.0081,-0.0075,-0.0056,-0.0037,-0.0024,-0.0014,0.0003,0.0005,0.0006,0.0009,0.002,0.0021,0.0023,0.0029,0.0032,0.0005,0.0005,0.0005,0,-0.0095,-0.0105,-0.01,-0.0104,-0.0106,-0.0095,-0.0101,-0.0093,-0.0088,-0.0081,-0.0079,-0.0045,-0.0029,-0.0007,-0.0002,0.0005,0.0007,0.0002,0.002,0.0021,0.0023,0.003,0.0032,0.0005,0.0005,0.0005,0.0005,0,-0.0109,-0.0114,-0.0116,-0.0119,-0.0116,-0.0118,-0.0108,-0.01,-0.0091,-0.0083,-0.0058,-0.0036,-0.0017,-0.0007,0.0002,0.0022,0.0019,0.0019,0.0014,0.0024,0.0031,0.0034,0.0005,0.0005,0.0005,0.0005,0,0,-0.0123,-0.0128,-0.0128,-0.0135,-0.0125,-0.0128,-0.0116,-0.0105,-0.01,-0.0077,-0.0066,-0.003,-0.0015,-0.0003,0.0012,0.0026,0.0041,0.0026,0.0027,0.0028,0.0059,0.0118,0.0126,0.0039,0.0039,0.004,0.0058,0,-0.0138,-0.0155,-0.0148,-0.0159,-0.0168,-0.015,-0.0144,-0.0128,-0.0107,-0.0089,-0.0052,-0.0033,-0.0015,-0.0005,0.0014,0.004,0.0048,0.0036,0.0055,0.0055,0.0102,0.0131,0.0125,0.0147,0.0061,0.0061,0.0062,0,-0.0156,-0.0166,-0.0183,-0.0189,-0.0191,-0.019,-0.0178,-0.0169,-0.0131,-0.0115,-0.0079,-0.005,-0.0009,-0.0004,0.0045,0.0035,0.0045,0.0061,0.0062,0.0122,0.012,0.0125,0.0154,0.0066,0.0065,0.0065,0.0065,0,-0.0179,-0.019,-0.0207,-0.0209,-0.021,-0.021,-0.0205,-0.0176,-0.0171,-0.0126,-0.011,-0.006,-0.0026,-0.0001,0.0059,0.0042,0.011,0.0087,0.0145,0.0149,0.0152,0.0156,0.0105,0.0105,0.0105,0.0105,0.0105,0,-0.0201,-0.0214,-0.022,-0.023,-0.0249,-0.0235,-0.0242,-0.0224,-0.0198,-0.0182,-0.0125,-0.009,-0.0024,0.0033,0.0059,0.0136,0.0113,0.0159,0.0165,0.0151,0.0155,0.0091,0.0089,0.0105,0.0105,0.0105,0.0105,0,-0.0224,-0.0227,-0.025,-0.0258,-0.0261,-0.0273,-0.0277,-0.0281,-0.0243,-0.0217,-0.0202,-0.011,-0.0019,0.0051,0.0115,0.0151,0.0201,0.0223,0.0211,0.0218,0.0221,0.0218,0.0275,0.0278,0.028,0.0281,0.0283,0,-0.0238,-0.0252,-0.0274,-0.0293,-0.0297,-0.0313,-0.0328,-0.0309,-0.0304,-0.0222,-0.0208,-0.01,-0.0023,0.0119,0.0219,0.0294,0.0262,0.0318,0.0292,0.0242,0.0242,0.0236,0.0231,0.0281,0.0282,0.0283,0.0284,0,-0.0265,-0.0271,-0.029,-0.033,-0.0352,-0.038,-0.0386,-0.0386,-0.0345,-0.0309,-0.0221,-0.0149,0.0033,0.0163,0.0297,0.0328,0.0312,0.0344,0.0297,0.0254,0.0253,0.0251,0.0245,0.0294,0.0293,0.0292,0.0291,0.0291,-0.0282,-0.0304,-0.0331,-0.0369,-0.0402,-0.043,-0.0442,-0.0431,-0.0414,-0.0352,-0.0261,-0.0176,0.001,0.0185,0.0317,0.0423,0.0405,0.0391,0.0385,0.0378,0.0391,0.0395,0.0464,0.0464,0.0464,0.0464,0.0464,0,-0.0305,-0.033,-0.037,-0.0419,-0.0469,-0.0471,-0.0476,-0.0473,-0.0442,-0.0398,-0.0325,-0.019,-0.0016,0.0147,0.0346,0.0475,0.0437,0.0467,0.0398,0.039,0.0382,0.0391,0.0466,0.0466,0.0466,0.0466,0,0,-0.0319,-0.036,-0.0384,-0.0468,-0.0504,-0.0547,-0.0544,-0.0515,-0.0484,-0.0442,-0.0409,-0.0313,-0.0069,0.0058,0.026,0.0368,0.0326,0.0361,0.035,0.024,0.0229,0.0338,0.0345,0,0,0,0,0]}],[{"header":{"parameterUnit":"m.s-1","parameterCategory":2,"la1":30.2991,"la2":30.254,"lo1":-89.0895,"lo2":-89.0444,"dy":0.0017,"dx":0.0017,"nx":28,"ny":28,"refTime":"2023-10-24T21:00:00:Z","depth":"4","parameterNumber":2,"parameterNumberName":"U-component_of_CURRENTS"},"data":[0,0,0,0,0,0,0,0,0,0,0,0,0,0,0,0,0,0,0,0,0,0,0,0,0,0,0,0,0,0,0,0,0,0,0,0,0,0,0,0,0,0,0,0,0,0,0,0,0,0,0,0,0,0,0,0,0,0,-0.0466,-0.0466,0,-0.048,-0.048,-0.048,-0.0455,-0.0455,-0.0454,-0.0454,-0.0392,-0.0391,-0.039,0,0,0,0,0,0,0,0,0,0,0,0,0,-0.0406,-0.0407,-0.0466,-0.0466,-0.0467,-0.048,-0.048,-0.048,-0.0455,-0.0455,-0.0454,-0.0453,-0.0392,-0.0391,-0.039,0,0,0,0,0,0,0,0,0,0,0,0,0,-0.0424,-0.0408,-0.0466,-0.0459,-0.0458,-0.048,-0.048,-0.048,-0.0455,-0.0455,-0.0454,-0.0453,-0.0393,-0.0391,-0.0389,-0.0395,0,0,-0.0384,-0.0384,0,0,0,0,0,0,0,0,-0.0423,-0.0426,-0.0459,-0.0459,-0.0459,-0.0468,-0.0436,-0.0449,-0.0456,-0.0453,-0.0454,-0.0453,-0.0413,-0.041,-0.0411,-0.0392,-0.0389,-0.0384,-0.0383,-0.0382,-0.0382,0,0,0,0,0,0,0,-0.0422,-0.0425,-0.0468,-0.046,-0.046,-0.0451,-0.0452,-0.0439,-0.0433,-0.0453,-0.0452,-0.0459,-0.0412,-0.0412,-0.0409,-0.0388,-0.0384,-0.0383,-0.0382,-0.0381,-0.0352,-0.0353,0,0,0,0,0,0,-0.0429,-0.0425,-0.0468,-0.0469,-0.0442,-0.0453,-0.0454,-0.0463,-0.0435,-0.0432,-0.046,-0.0458,-0.0416,-0.0411,-0.0406,-0.0404,-0.0382,-0.0381,-0.038,-0.0352,-0.0352,-0.0353,0,0,0,0,0,0,-0.0427,-0.0433,-0.0467,-0.0449,-0.0453,-0.0455,-0.0465,-0.0464,-0.0471,-0.0442,-0.0436,-0.0469,-0.0415,-0.0409,-0.0387,-0.0401,-0.038,-0.0378,-0.0352,-0.0352,-0.0353,-0.0402,0,0,0,0,0,0,-0.0426,-0.0432,-0.0448,-0.045,-0.0455,-0.0473,-0.0466,-0.0465,-0.0478,-0.0476,-0.0448,-0.0441,-0.0414,-0.039,-0.0386,-0.0398,-0.0377,-0.0351,-0.0352,-0.0352,-0.04,-0.0404,-0.0408,0,0,0,0,0,-0.0424,-0.0434,-0.0449,-0.0455,-0.0474,-0.0474,-0.0475,-0.0471,-0.0479,-0.0476,-0.0458,-0.0442,-0.039,-0.0389,-0.0384,-0.0396,-0.0351,-0.0352,-0.0352,-0.0399,-0.0403,-0.0408,0,0,0,0,0,0,-0.0411,-0.0433,-0.0449,-0.0466,-0.0473,-0.0471,-0.0478,-0.0482,-0.047,-0.0469,-0.0443,-0.0434,-0.0421,-0.0402,-0.0401,-0.0389,-0.037,-0.037,-0.0407,-0.0411,-0.0415,-0.0427,-0.0376,0,0,0,0,0,-0.0422,-0.0441,-0.0453,-0.0471,-0.0477,-0.0486,-0.0492,-0.0488,-0.0478,-0.0473,-0.0455,-0.0436,-0.042,-0.041,-0.0387,-0.0383,-0.037,-0.0388,-0.0392,-0.0395,-0.0401,-0.0388,-0.0391,-0.0355,-0.0355,-0.0355,0,0,-0.0425,-0.0442,-0.0454,-0.0472,-0.0482,-0.0492,-0.0486,-0.0492,-0.0499,-0.0468,-0.0468,-0.0447,-0.0421,-0.0409,-0.0403,-0.0395,-0.04,-0.0396,-0.0399,-0.0403,-0.0389,-0.0393,-0.0396,-0.0355,-0.0355,-0.0355,0,0,-0.0434,-0.0456,-0.0474,-0.0482,-0.0499,-0.05,-0.0507,-0.0507,-0.0506,-0.0503,-0.0484,-0.0472,-0.0449,-0.0433,-0.0424,-0.0437,-0.0418,-0.0433,-0.0464,-0.0452,-0.0455,-0.0458,-0.0454,-0.0456,-0.0437,-0.0437,-0.0437,0,-0.0442,-0.0466,-0.0477,-0.0493,-0.0505,-0.0508,-0.0521,-0.0523,-0.0514,-0.0515,-0.0504,-0.0483,-0.0462,-0.0459,-0.0462,-0.0447,-0.0439,-0.0451,-0.0458,-0.046,-0.0462,-0.0457,-0.0459,-0.044,-0.0439,-0.0439,-0.0439,0,-0.0459,-0.0483,-0.0492,-0.0521,-0.0529,-0.0537,-0.0544,-0.0548,-0.0552,-0.055,-0.0544,-0.0517,-0.0505,-0.05,-0.0487,-0.0494,-0.0484,-0.0463,-0.045,-0.0469,-0.0463,-0.0463,-0.0443,-0.0442,-0.0442,-0.0441,0,0,-0.0463,-0.0499,-0.0504,-0.0523,-0.0544,-0.0549,-0.0567,-0.0577,-0.0592,-0.0579,-0.0591,-0.0572,-0.0562,-0.0552,-0.0535,-0.0529,-0.0538,-0.0509,-0.0507,-0.0511,-0.0519,-0.054,-0.0543,-0.0519,-0.0519,-0.0519,-0.0513,0,-0.0478,-0.0509,-0.0523,-0.0554,-0.057,-0.0582,-0.0599,-0.0607,-0.061,-0.0616,-0.06,-0.06,-0.0581,-0.0582,-0.0573,-0.0544,-0.0541,-0.0542,-0.0495,-0.0494,-0.0515,-0.0544,-0.052,-0.0513,-0.0513,-0.0514,-0.0514,0,-0.0488,-0.051,-0.0539,-0.0576,-0.0585,-0.06,-0.0629,-0.0643,-0.0653,-0.0658,-0.0657,-0.0644,-0.0642,-0.0619,-0.059,-0.0592,-0.0565,-0.0541,-0.054,-0.0543,-0.0516,-0.0487,-0.0514,-0.0514,-0.0514,-0.0514,-0.0514,0,-0.0478,-0.0519,-0.0544,-0.0556,-0.0594,-0.0611,-0.0631,-0.0652,-0.0671,-0.0686,-0.0701,-0.0686,-0.0688,-0.065,-0.0619,-0.0602,-0.0585,-0.0548,-0.0542,-0.0543,-0.0502,-0.0499,-0.0528,-0.0528,-0.0528,-0.0528,-0.0528,0,-0.048,-0.0501,-0.0542,-0.0555,-0.0584,-0.0613,-0.0644,-0.0664,-0.0696,-0.0711,-0.0722,-0.0727,-0.0697,-0.0684,-0.0637,-0.0608,-0.06,-0.056,-0.0547,-0.0524,-0.0523,-0.0503,-0.05,-0.0528,-0.0528,-0.0528,-0.0528,0,-0.0461,-0.049,-0.0519,-0.0564,-0.0579,-0.0598,-0.0655,-0.0676,-0.0716,-0.0737,-0.0749,-0.0767,-0.0762,-0.074,-0.0689,-0.0643,-0.0602,-0.0591,-0.0593,-0.0577,-0.0558,-0.0558,-0.0572,-0.0573,-0.0573,-0.0574,-0.0574,0,-0.0454,-0.0467,-0.0516,-0.0533,-0.0553,-0.0592,-0.0618,-0.0673,-0.0697,-0.0746,-0.0749,-0.0781,-0.0781,-0.0731,-0.0711,-0.0661,-0.0641,-0.0614,-0.0567,-0.0579,-0.0565,-0.0563,-0.0562,-0.0576,-0.0576,-0.0576,-0.0576,0,-0.0436,-0.0454,-0.0477,-0.0509,-0.0538,-0.0575,-0.0616,-0.0636,-0.0689,-0.0734,-0.0734,-0.0731,-0.0743,-0.0718,-0.0717,-0.0662,-0.0625,-0.062,-0.0616,-0.0572,-0.0584,-0.0568,-0.0566,-0.0578,-0.0578,-0.0578,-0.0578,0,-0.0418,-0.0426,-0.0454,-0.0478,-0.0514,-0.054,-0.0572,-0.0601,-0.0635,-0.069,-0.0681,-0.0706,-0.073,-0.0719,-0.0696,-0.0685,-0.0651,-0.059,-0.0587,-0.0585,-0.0595,-0.0612,-0.0616,0,0,0,0,0,-0.0399,-0.0405,-0.0424,-0.045,-0.0483,-0.0505,-0.0561,-0.0595,-0.0645,-0.0632,-0.0659,-0.0663,-0.0661,-0.0673,-0.0661,-0.0705,-0.0657,-0.0687,-0.0587,-0.0591,-0.0589,-0.0602,0,0,0,0,0,0,-0.0386,-0.0402,-0.041,-0.0418,-0.0429,-0.0467,-0.05,-0.0537,-0.0539,-0.0584,-0.0591,-0.0619,-0.0635,-0.0659,-0.0644,-0.065,-0.0572,-0.0709,-0.0707,-0.0593,-0.059,-0.0588,-0.0601,0,0,0,0,0]},{"header":{"parameterUnit":"m.s-1","parameterCategory":2,"la1":30.2991,"la2":30.254,"lo1":-89.0895,"lo2":-89.0444,"dy":0.0017,"dx":0.0017,"nx":28,"ny":28,"refTime":"2023-10-24T21:00:00:Z","depth":"4","parameterNumber":3,"parameterNumberName":"V-component_of_CURRENTS"},"data":[0,0,0,0,0,0,0,0,0,0,0,0,0,0,0,0,0,0,0,0,0,0,0,0,0,0,0,0,0,0,0,0,0,0,0,0,0,0,0,0,0,0,0,0,0,0,0,0,0,0,0,0,0,0,0,0,0,0,0.0012,0.0012,0,-0.0039,-0.004,-0.0041,-0.0106,-0.0106,-0.0107,-0.0108,-0.0094,-0.0093,-0.0092,0,0,0,0,0,0,0,0,0,0,0,0,0,0.0006,0.0007,0.0012,0.0012,0.0012,-0.0038,-0.004,-0.0041,-0.0106,-0.0106,-0.0107,-0.0108,-0.0095,-0.0093,-0.0092,0,0,0,0,0,0,0,0,0,0,0,0,0,-0.0017,0.0007,0.0012,-0.0023,-0.0026,-0.0038,-0.004,-0.0041,-0.0106,-0.0106,-0.0107,-0.0108,-0.0095,-0.0094,-0.0092,-0.0064,0,0,-0.0088,-0.0087,0,0,0,0,0,0,0,0,-0.0015,-0.0017,-0.0018,-0.0021,-0.0024,-0.0063,-0.0037,-0.0044,-0.0105,-0.008,-0.0108,-0.0109,-0.0074,-0.0074,-0.0089,-0.0064,-0.0063,-0.0088,-0.0087,-0.0086,-0.0086,0,0,0,0,0,0,0,-0.0013,-0.0015,-0.0013,-0.0018,-0.0022,-0.0052,-0.0057,-0.0039,-0.0074,-0.0083,-0.0086,-0.0084,-0.0076,-0.0091,-0.0089,-0.0063,-0.0088,-0.0086,-0.0086,-0.0085,-0.005,-0.005,0,0,0,0,0,0,0.0006,-0.0013,-0.0011,-0.0014,-0.0017,-0.0051,-0.0056,-0.0053,-0.0075,-0.0079,-0.0083,-0.0087,-0.0093,-0.0091,-0.0089,-0.0085,-0.0086,-0.0085,-0.0084,-0.005,-0.005,-0.005,0,0,0,0,0,0,0.0006,0.0007,-0.0009,-0.0011,-0.0015,-0.0049,-0.0046,-0.0054,-0.0083,-0.0076,-0.0079,-0.0106,-0.0093,-0.0091,-0.0089,-0.0083,-0.0084,-0.0083,-0.005,-0.005,-0.005,-0.0058,0,0,0,0,0,0,0.0006,0.0007,0.0009,-0.001,-0.0014,-0.0032,-0.0045,-0.0054,-0.0077,-0.0083,-0.0095,-0.0095,-0.0094,-0.0092,-0.0088,-0.0081,-0.0082,-0.005,-0.005,-0.005,-0.0058,-0.0058,-0.0058,0,0,0,0,0,0.0006,0.0002,0.0009,0.0009,-0.0008,-0.0032,-0.0038,-0.0068,-0.0077,-0.0097,-0.0101,-0.0095,-0.0088,-0.009,-0.0086,-0.0079,-0.0051,-0.005,-0.005,-0.0057,-0.0058,-0.0058,0,0,0,0,0,0,-0.0014,-0.0005,0.0002,-0.0002,-0.0016,-0.0041,-0.0062,-0.0071,-0.0093,-0.0096,-0.0094,-0.0093,-0.0089,-0.0082,-0.0085,-0.0069,-0.0067,-0.0066,-0.0074,-0.0075,-0.0075,-0.0067,-0.0081,0,0,0,0,0,-0.0008,-0.0006,-0.0005,-0.0012,-0.0017,-0.0036,-0.005,-0.0065,-0.0079,-0.0092,-0.0092,-0.0089,-0.0082,-0.0079,-0.0073,-0.0061,-0.0041,-0.0053,-0.0054,-0.0054,-0.0045,-0.002,-0.0017,-0.005,-0.005,-0.005,0,0,-0.0017,-0.0012,-0.0011,-0.0015,-0.0031,-0.0041,-0.0051,-0.0074,-0.0081,-0.0081,-0.0094,-0.0088,-0.008,-0.0074,-0.0071,-0.0069,-0.0034,-0.0054,-0.0054,-0.0044,-0.002,-0.0016,-0.0013,-0.0049,-0.0049,-0.0049,0,0,-0.0041,-0.003,-0.0037,-0.0043,-0.0053,-0.0058,-0.0062,-0.0079,-0.009,-0.009,-0.0092,-0.0084,-0.0076,-0.0069,-0.0064,-0.0057,-0.0037,-0.0057,-0.005,-0.0026,-0.0023,-0.002,0.0013,0.0019,-0.0056,-0.0056,-0.0056,0,-0.0052,-0.0053,-0.0048,-0.0058,-0.0062,-0.0063,-0.0076,-0.0082,-0.0094,-0.0087,-0.0096,-0.0073,-0.0071,-0.0051,-0.0058,-0.0056,-0.0039,-0.005,-0.0026,-0.0023,-0.002,0.0014,0.002,-0.0057,-0.0057,-0.0057,-0.0057,0,-0.0078,-0.0079,-0.009,-0.0088,-0.0095,-0.011,-0.0101,-0.0104,-0.0101,-0.0093,-0.0075,-0.0068,-0.0052,-0.0052,-0.0055,-0.003,-0.0023,-0.003,-0.0025,-0.0017,0.0018,0.0025,-0.0057,-0.0057,-0.0057,-0.0057,0,0,-0.0098,-0.0104,-0.0106,-0.011,-0.0109,-0.012,-0.0115,-0.0107,-0.0094,-0.0087,-0.0062,-0.0056,-0.004,-0.0033,-0.0028,-0.001,0.0021,-0.0014,-0.0013,0.002,0.0081,0.0082,0.009,0.0015,0.0016,0.0016,0.0098,0,-0.012,-0.0141,-0.0132,-0.0149,-0.016,-0.0145,-0.014,-0.0126,-0.0104,-0.0075,-0.0046,-0.0027,-0.0035,-0.0027,-0.0007,0.0016,0.0039,0.0,0.0068,0.0071,0.0071,0.0098,0.002,0.0103,0.0105,0.0106,0.0107,0,-0.0141,-0.0151,-0.0172,-0.0172,-0.0175,-0.0178,-0.0156,-0.0149,-0.0098,-0.0079,-0.0038,-0.0011,0.0026,0.0013,0.0071,0.0045,0.0064,0.0081,0.0084,0.0094,0.0084,0.0093,0.012,0.0119,0.0118,0.0117,0.0117,0,-0.0159,-0.0174,-0.0191,-0.0193,-0.0194,-0.0193,-0.0188,-0.0149,-0.0138,-0.0074,-0.0053,0.0008,0.0032,0.0072,0.011,0.0089,0.0182,0.0157,0.0181,0.0182,0.016,0.0156,0.02,0.02,0.02,0.02,0.0199,0,-0.0179,-0.0192,-0.0202,-0.0211,-0.0225,-0.0213,-0.0205,-0.0185,-0.0142,-0.012,-0.0059,-0.0031,0.0042,0.0104,0.0137,0.0194,0.0206,0.0198,0.0206,0.0155,0.0149,0.0166,0.016,0.0203,0.0202,0.0202,0.0201,0,-0.0196,-0.0203,-0.0225,-0.0233,-0.0237,-0.0245,-0.0239,-0.0225,-0.0187,-0.0151,-0.0137,-0.0054,0.0025,0.0113,0.0194,0.0218,0.0277,0.0291,0.0255,0.0257,0.0255,0.0249,0.0328,0.0329,0.0329,0.033,0.033,0,-0.0207,-0.0221,-0.0246,-0.0263,-0.027,-0.0279,-0.0281,-0.0253,-0.0238,-0.0176,-0.016,-0.0068,-0.0007,0.0124,0.021,0.0318,0.0309,0.0347,0.0279,0.027,0.027,0.0262,0.0255,0.0331,0.0331,0.0332,0.0332,0,-0.0228,-0.0237,-0.0256,-0.0294,-0.0309,-0.0319,-0.032,-0.0315,-0.0274,-0.0242,-0.0189,-0.0106,0.0,0.011,0.0215,0.0276,0.033,0.0353,0.0351,0.0287,0.0275,0.0273,0.0265,0.0334,0.0334,0.0333,0.0333,0,-0.0241,-0.0262,-0.029,-0.0321,-0.0342,-0.0351,-0.0348,-0.0333,-0.0316,-0.0252,-0.0235,-0.0116,-0.0041,0.0089,0.0177,0.0262,0.0252,0.0243,0.0246,0.0244,0.019,0.0161,0.0204,0,0,0,0,0,-0.0253,-0.0279,-0.0314,-0.0345,-0.0365,-0.0378,-0.0369,-0.0357,-0.0321,-0.0298,-0.0269,-0.0175,-0.0032,0.004,0.0119,0.0183,0.0275,0.0278,0.0267,0.0346,0.0344,0.0294,0,0,0,0,0,0,-0.0264,-0.0298,-0.0318,-0.0356,-0.0382,-0.0397,-0.0396,-0.0371,-0.0355,-0.0314,-0.0237,-0.0186,-0.004,-0.0087,0.0108,0.014,0.0135,0.0355,0.0356,0.0348,0.0345,0.0343,0.0291,0,0,0,0,0]}]]